TimeEST,TemperatureF,Dew PointF,Humidity,Sea Level PressureIn,VisibilityMPH,Wind Direction,Wind SpeedMPH,Gust SpeedMPH,PrecipitationIn,Events,Conditions,WindDirDegrees,DateUTC
12:22 AM,26.6,21.2,80,29.99,10.0,WNW,9.2,-,N/A,,Overcast,290,2013-02-24 05:22:00
12:55 AM,26.1,21.4,82,29.99,10.0,West,9.2,-,N/A,,Overcast,280,2013-02-24 05:55:00
1:55 AM,26.1,21.0,81,30.00,10.0,West,8.1,-,N/A,,Overcast,280,2013-02-24 06:55:00
2:55 AM,25.3,20.8,83,30.01,10.0,West,8.1,-,N/A,,Overcast,280,2013-02-24 07:55:00
3:51 AM,23.0,19.4,86,30.02,10.0,West,6.9,-,N/A,,Scattered Clouds,270,2013-02-24 08:51:00
3:55 AM,22.8,20.1,89,30.02,10.0,West,6.9,-,N/A,,Scattered Clouds,270,2013-02-24 08:55:00
4:55 AM,21.6,19.2,91,30.04,10.0,WSW,6.9,-,N/A,,Clear,250,2013-02-24 09:55:00
5:55 AM,20.3,18.5,93,30.05,10.0,West,5.8,-,N/A,,Clear,260,2013-02-24 10:55:00
6:55 AM,20.1,18.1,92,30.07,10.0,WSW,6.9,-,N/A,,Clear,250,2013-02-24 11:55:00
7:55 AM,20.7,18.5,91,30.09,10.0,West,6.9,-,N/A,,Clear,260,2013-02-24 12:55:00
8:55 AM,23.7,20.1,86,30.11,10.0,West,8.1,-,N/A,,Clear,270,2013-02-24 13:55:00
9:55 AM,26.2,21.6,82,30.13,10.0,West,6.9,-,N/A,,Clear,260,2013-02-24 14:55:00
10:30 AM,26.6,21.2,80,30.09,10.0,West,9.2,-,N/A,,Clear,280,2013-02-24 15:30:00
10:55 AM,28.6,21.6,75,30.14,10.0,WNW,6.9,-,N/A,,Clear,290,2013-02-24 15:55:00
11:55 AM,30.6,22.1,71,30.14,10.0,West,6.9,-,N/A,,Clear,280,2013-02-24 16:55:00
12:55 PM,32.5,22.5,66,30.14,10.0,WNW,8.1,-,N/A,,Clear,300,2013-02-24 17:55:00
1:55 PM,34.5,23.4,64,30.12,10.0,WNW,9.2,-,N/A,,Clear,290,2013-02-24 18:55:00
2:55 PM,34.9,23.0,62,30.12,10.0,West,8.1,-,N/A,,Clear,280,2013-02-24 19:55:00
3:55 PM,36.0,23.2,60,30.12,10.0,West,6.9,-,N/A,,Clear,280,2013-02-24 20:55:00
4:55 PM,35.8,23.4,61,30.13,10.0,West,5.8,-,N/A,,Clear,260,2013-02-24 21:55:00
5:55 PM,34.3,23.5,65,30.14,10.0,West,3.5,-,N/A,,Clear,260,2013-02-24 22:55:00
6:55 PM,31.5,24.4,75,30.14,10.0,Calm,Calm,-,N/A,,Clear,0,2013-02-24 23:55:00
7:55 PM,28.9,24.1,82,30.17,10.0,Calm,Calm,-,N/A,,Clear,0,2013-02-25 00:55:00
8:55 PM,28.2,24.4,86,30.17,10.0,Calm,Calm,-,N/A,,Clear,0,2013-02-25 01:55:00
9:55 PM,24.6,22.3,91,30.17,10.0,East,3.5,-,N/A,,Clear,80,2013-02-25 02:55:00
10:55 PM,25.9,23.0,89,30.17,10.0,Calm,Calm,-,N/A,,Clear,0,2013-02-25 03:55:00
11:55 PM,25.5,23.9,94,30.17,10.0,East,3.5,-,N/A,,Clear,100,2013-02-25 04:55:00